GW0353 Weather Reports


Display with metric or nautical units.
time (UTC)temp
F
wind
direction
speed
MPH
gust
MPH
rain 1hr
in
rain 24hr
in
rain mn
in
humidity
%
barometer
mb
20260903055057 47 0 0.0 2.0 0.00 0.00 0.00 58 1022.5
20260903054605 48 0 0.0 1.0 0.00 0.00 0.00 58 1022.6
20260903054058 48 0 0.0 1.0 0.00 0.00 0.00 58 1022.6
20260903053600 48 0 0.0 1.0 0.00 0.00 0.00 59 1022.6
20260903053104 48 0 0.0 2.0 0.00 0.00 0.00 59 1022.5
20260903052557 48 0 0.0 2.0 0.00 0.00 0.00 60 1022.6
20260903052059 48 0 0.0 2.0 0.00 0.00 0.00 60 1022.6
20260903051609 48 0 0.0 2.0 0.00 0.00 0.00 60 1022.8
20260903051058 48 177 0.0 2.0 0.00 0.00 0.00 60 1022.9
20260903050601 49 0 0.0 2.0 0.00 0.00 0.00 60 1022.9
20260903050107 49 238 0.0 2.0 0.00 0.00 0.00 61 1023.0
20260903045558 49 0 1.0 3.0 0.00 0.00 0.00 61 1022.9
20260903045058 49 0 0.0 4.0 0.00 0.00 0.00 61 1023.0
20260903044605 49 348 0.0 4.0 0.00 0.00 0.00 60 1023.0
20260903044100 49 107 2.0 4.0 0.00 0.00 0.00 58 1022.9
20260903043600 49 138 0.0 0.0 0.00 0.00 0.00 56 1022.9
20260903043105 50 0 0.0 0.0 0.00 0.00 0.00 55 1022.8
20260903042558 50 0 0.0 2.0 0.00 0.00 0.00 55 1022.8
20260903042058 51 0 0.0 2.0 0.00 0.00 0.00 55 1022.9
20260903041608 51 282 0.0 2.0 0.00 0.00 0.00 55 1022.9
20260903041058 51 0 0.0 2.0 0.00 0.00 0.00 54 1022.9
20260903040600 52 325 0.0 3.0 0.00 0.00 0.00 54 1022.8
20260903040112 52 0 0.0 3.0 0.00 0.00 0.00 53 1022.8
20260903035558 51 308 0.0 3.0 0.00 0.00 0.00 53 1022.8
20260903035058 51 311 0.0 1.0 0.00 0.00 0.00 53 1022.7
20260903034603 52 0 0.0 2.0 0.00 0.00 0.00 52 1022.6
20260903034058 52 0 0.0 2.0 0.00 0.00 0.00 50 1022.5
20260903033558 53 0 0.0 3.0 0.00 0.00 0.00 49 1022.6
20260903033102 54 0 0.0 5.0 0.00 0.00 0.00 48 1022.4
20260903032558 55 0 0.0 5.0 0.00 0.00 0.00 47 1022.3
20260903032057 55 284 1.0 5.0 0.00 0.00 0.00 46 1022.4
20260903031605 55 319 0.0 5.0 0.00 0.00 0.00 48 1022.4
20260903031058 55 0 0.0 4.0 0.00 0.00 0.00 44 1022.2
20260903030600 55 0 0.0 4.0 0.00 0.00 0.00 44 1022.2
20260903030115 56 0 0.0 7.0 0.00 0.00 0.00 44 1021.9
20260903025558 56 297 1.0 7.0 0.00 0.00 0.00 42 1021.8
20260903025058 56 37 3.0 12.0 0.00 0.00 0.00 42 1021.7
20260903024610 56 344 5.0 12.0 0.00 0.00 0.00 43 1021.7
20260903024059 56 37 4.0 10.0 0.00 0.00 0.00 44 1021.6
20260903023558 56 7 1.0 5.0 0.00 0.00 0.00 44 1021.5
20260903023125 57 264 0.0 5.0 0.00 0.00 0.00 42 1021.6
20260903022558 58 169 0.0 3.0 0.00 0.00 0.00 41 1021.5
20260903022058 58 8 0.0 2.0 0.00 0.00 0.00 41 1021.4
20260903021612 60 45 0.0 2.0 0.00 0.00 0.00 38 1021.4
20260903021059 61 314 0.0 5.0 0.00 0.00 0.00 36 1021.4
20260903020558 61 0 0.0 5.0 0.00 0.00 0.00 35 1021.3
20260903020112 61 233 1.0 6.0 0.00 0.00 0.00 34 1021.3
20260903015600 62 259 1.0 6.0 0.00 0.00 0.00 35 1021.3
20260903015059 62 229 1.0 8.0 0.00 0.00 0.00 35 1021.3
20260903014610 62 260 2.0 8.0 0.00 0.00 0.00 35 1021.4
20260903014058 63 164 3.0 8.0 0.00 0.00 0.00 33 1021.3
20260903013632 63 172 3.0 12.0 0.00 0.00 0.00 34 1021.5
20260903013109 63 201 6.0 12.0 0.00 0.00 0.00 32 1021.4
20260903012558 64 168 2.0 7.0 0.00 0.00 0.00 32 1021.4
20260903012058 64 231 3.0 7.0 0.00 0.00 0.00 32 1021.3
20260903011606 65 167 2.0 7.0 0.00 0.00 0.00 32 1021.4
20260903011101 66 153 1.0 8.0 0.00 0.00 0.00 32 1021.4
20260903010558 66 161 2.0 8.0 0.00 0.00 0.00 30 1021.5
20260903005558 66 157 3.0 10.0 0.00 0.00 0.00 31 1021.5
20260903005058 66 138 2.0 15.0 0.00 0.00 0.00 30 1021.4
20260903004604 66 188 2.0 15.0 0.00 0.00 0.00 30 1021.3
20260903004057 66 243 4.0 11.0 0.00 0.00 0.00 30 1021.3
20260903003557 66 172 5.0 11.0 0.00 0.00 0.00 30 1021.4
20260903003109 67 163 4.0 11.0 0.00 0.00 0.00 29 1021.5
20260903002558 67 234 4.0 11.0 0.00 0.00 0.00 29 1021.3
20260903002058 67 153 3.0 12.0 0.00 0.00 0.00 30 1021.4
20260903001625 67 160 3.0 12.0 0.00 0.00 0.00 29 1021.4
20260903001057 67 127 4.0 9.0 0.00 0.00 0.00 27 1021.4
20260903000557 67 175 4.0 11.0 0.00 0.00 0.00 30 1021.4
20260903000103 67 221 6.0 11.0 0.00 0.00 0.00 28 1021.6
20260902235557 68 156 1.0 16.0 0.00 0.00 0.00 29 1021.4
20260902235058 68 174 3.0 16.0 0.00 0.00 0.00 27 1021.4
20260902234627 68 0 5.0 18.0 0.00 0.00 0.00 26 1021.5
20260902234100 68 175 6.0 18.0 0.00 0.00 0.00 28 1021.4
20260902233557 68 172 3.0 16.0 0.00 0.00 0.00 28 1021.5
20260902233105 67 200 4.0 16.0 0.00 0.00 0.00 28 1021.3
20260902232601 67 163 8.0 13.0 0.00 0.00 0.00 27 1021.3
20260902232057 67 197 7.0 11.0 0.00 0.00 0.00 27 1021.4
20260902231614 67 266 3.0 14.0 0.00 0.00 0.00 27 1021.3
20260902231057 67 179 4.0 14.0 0.00 0.00 0.00 27 1021.5
20260902230600 68 163 5.0 14.0 0.00 0.00 0.00 28 1021.5
20260902230115 67 94 6.0 18.0 0.00 0.00 0.00 28 1021.3
20260902225557 67 289 8.0 18.0 0.00 0.00 0.00 28 1021.4
20260902225058 68 184 5.0 13.0 0.00 0.00 0.00 28 1021.4
20260902224605 68 251 5.0 17.0 0.00 0.00 0.00 28 1021.4
20260902224057 67 193 6.0 18.0 0.00 0.00 0.00 28 1021.7
20260902223554 67 150 9.0 18.0 0.00 0.00 0.00 27 1021.5
20260902223104 68 330 4.0 13.0 0.00 0.00 0.00 27 1021.7
20260902222558 68 160 3.0 13.0 0.00 0.00 0.00 28 1021.6
20260902222101 68 162 5.0 12.0 0.00 0.00 0.00 29 1021.6
20260902221607 67 153 4.0 14.0 0.00 0.00 0.00 29 1021.6
20260902221057 67 150 6.0 17.0 0.00 0.00 0.00 29 1021.7
20260902220601 67 169 9.0 21.0 0.00 0.00 0.00 27 1021.7
20260902220107 68 195 9.0 21.0 0.00 0.00 0.00 28 1021.8
20260902215558 68 150 8.0 20.0 0.00 0.00 0.00 27 1021.7
20260902215059 69 148 7.0 20.0 0.00 0.00 0.00 28 1022.0
20260902214615 70 154 5.0 20.0 0.00 0.00 0.00 25 1021.9
20260902214058 70 153 3.0 13.0 0.00 0.00 0.00 26 1021.9
20260902213557 70 144 2.0 13.0 0.00 0.00 0.00 25 1022.0
20260902213109 70 158 3.0 13.0 0.00 0.00 0.00 25 1021.8
20260902212558 69 145 7.0 16.0 0.00 0.00 0.00 26 1022.0
20260902212058 69 181 7.0 16.0 0.00 0.00 0.00 26 1021.7
20260902211606 69 163 3.0 17.0 0.00 0.00 0.00 25 1021.8
20260902211058 70 179 2.0 17.0 0.00 0.00 0.00 24 1021.8
20260902210604 71 118 5.0 17.0 0.00 0.00 0.00 24 1021.6
20260902210105 71 234 5.0 11.0 0.00 0.00 0.00 22 1021.4
20260902205559 72 208 4.0 10.0 0.00 0.00 0.00 23 1021.6
20260902205101 72 195 4.0 9.0 0.00 0.00 0.00 23 1021.5
20260902204607 71 29 2.0 5.0 0.00 0.00 0.00 24 1021.2
20260902204059 71 193 1.0 10.0 0.00 0.00 0.00 21 1021.1
20260902203558 71 104 3.0 22.0 0.00 0.00 0.00 24 1021.0
20260902203109 70 252 5.0 22.0 0.00 0.00 0.00 23 1021.1
20260902202559 69 335 13.0 22.0 0.00 0.00 0.00 24 1021.1
20260902202059 69 56 9.0 15.0 0.00 0.00 0.00 22 1021.1
20260902201606 70 181 1.0 11.0 0.00 0.00 0.00 22 1021.1
20260902201058 69 75 6.0 10.0 0.00 0.00 0.00 22 1021.1
20260902200558 69 302 5.0 10.0 0.00 0.00 0.00 22 1021.1
20260902200106 70 338 2.0 9.0 0.00 0.00 0.00 23 1021.1
20260902195602 69 273 3.0 9.0 0.00 0.00 0.00 24 1021.2
20260902195058 69 113 4.0 7.0 0.00 0.00 0.00 25 1021.3
20260902194610 70 49 2.0 9.0 0.00 0.00 0.00 24 1021.4
20260902194058 69 53 4.0 9.0 0.00 0.00 0.00 25 1021.4
20260902193559 69 250 4.0 9.0 0.00 0.00 0.00 25 1021.3
20260902193108 70 304 2.0 7.0 0.00 0.00 0.00 25 1021.3
20260902192600 70 257 2.0 5.0 0.00 0.00 0.00 23 1021.3
20260902192102 70 321 0.0 5.0 0.00 0.00 0.00 22 1021.4
20260902191605 68 0 1.0 5.0 0.00 0.00 0.00 26 1021.4
20260902191058 68 56 1.0 5.0 0.00 0.00 0.00 25 1021.5
20260902190558 68 338 1.0 5.0 0.00 0.00 0.00 25 1021.5
20260902190106 67 60 2.0 5.0 0.00 0.00 0.00 24 1021.7
20260902185558 67 307 2.0 5.0 0.00 0.00 0.00 24 1021.8
20260902185102 67 31 3.0 5.0 0.00 0.00 0.00 25 1021.9
20260902184609 66 54 1.0 4.0 0.00 0.00 0.00 24 1022.1
20260902184059 66 305 1.0 4.0 0.00 0.00 0.00 25 1022.0
20260902183558 64 0 0.0 4.0 0.00 0.00 0.00 28 1022.1
20260902183114 64 26 2.0 5.0 0.00 0.00 0.00 26 1022.2
20260902182558 65 0 1.0 5.0 0.00 0.00 0.00 26 1022.1
20260902182101 65 356 0.0 3.0 0.00 0.00 0.00 27 1022.3
20260902181607 65 305 0.0 4.0 0.00 0.00 0.00 27 1022.3
20260902181057 64 0 0.0 4.0 0.00 0.00 0.00 28 1022.5
20260902180557 63 0 1.0 4.0 0.00 0.00 0.00 30 1022.5
20260902180109 63 295 1.0 2.0 0.00 0.00 0.00 28 1022.6
20260902175559 63 0 0.0 3.0 0.00 0.00 0.00 30 1022.5
20260902175059 62 323 0.0 3.0 0.00 0.00 0.00 30 1022.5
20260902174610 61 0 0.0 2.0 0.00 0.00 0.00 32 1022.5
20260902174058 60 51 0.0 4.0 0.00 0.00 0.00 31 1022.5
20260902173558 59 321 1.0 4.0 0.00 0.00 0.00 34 1022.5
20260902173106 58 53 1.0 4.0 0.00 0.00 0.00 35 1022.6
20260902172558 57 0 0.0 3.0 0.00 0.00 0.00 36 1022.6
20260902172100 57 88 0.0 3.0 0.00 0.00 0.00 37 1022.6
20260902171610 56 51 0.0 2.0 0.00 0.00 0.00 38 1022.5
20260902171059 56 65 0.0 2.0 0.00 0.00 0.00 38 1022.5
20260902170558 56 53 0.0 2.0 0.00 0.00 0.00 37 1022.5
20260902170117 56 109 0.0 2.0 0.00 0.00 0.00 37 1022.4
20260902165559 56 0 1.0 2.0 0.00 0.00 0.00 36 1022.5
20260902165101 57 93 0.0 2.0 0.00 0.00 0.00 36 1022.5
20260902164624 56 0 0.0 3.0 0.00 0.00 0.00 37 1022.4
20260902164058 56 81 0.0 3.0 0.00 0.00 0.00 37 1022.6
20260902163600 57 81 2.0 3.0 0.00 0.00 0.00 36 1022.4
20260902163109 57 63 0.0 2.0 0.00 0.00 0.00 37 1022.5
20260902162602 56 89 0.0 2.0 0.00 0.00 0.00 37 1022.5
20260902162059 55 127 0.0 1.0 0.00 0.00 0.00 39 1022.7
20260902161616 54 0 0.0 3.0 0.00 0.00 0.00 38 1022.8
20260902161059 54 0 0.0 3.0 0.00 0.00 0.00 38 1022.7
20260902160558 54 49 1.0 3.0 0.00 0.00 0.00 39 1022.6
20260902155558 55 49 1.0 3.0 0.00 0.00 0.00 38 1022.5
20260902155058 56 57 1.0 3.0 0.00 0.00 0.00 37 1022.4
20260902154602 57 63 0.0 3.0 0.00 0.00 0.00 38 1022.3
20260902154058 56 224 1.0 3.0 0.00 0.00 0.00 37 1022.6
20260902153558 55 0 0.0 3.0 0.00 0.00 0.00 38 1022.6
20260902153117 54 251 0.0 3.0 0.00 0.00 0.00 40 1022.5
20260902152557 53 0 0.0 2.0 0.00 0.00 0.00 41 1022.4
20260902152057 52 134 0.0 2.0 0.00 0.00 0.00 46 1022.4
20260902151608 52 115 0.0 2.0 0.00 0.00 0.00 48 1022.4
20260902151059 51 0 0.0 1.0 0.00 0.00 0.00 49 1022.2
20260902150558 50 0 0.0 1.0 0.00 0.00 0.00 51 1022.3
20260902150106 50 135 0.0 1.0 0.00 0.00 0.00 50 1022.3
20260902145558 49 0 0.0 1.0 0.00 0.00 0.00 50 1022.3
20260902145058 48 0 0.0 1.0 0.00 0.00 0.00 54 1022.3
20260902144627 47 94 0.0 1.0 0.00 0.00 0.00 52 1022.3
20260902144058 46 0 0.0 0.0 0.00 0.00 0.00 55 1022.4
20260902143559 45 0 0.0 1.0 0.00 0.00 0.00 55 1022.3
20260902143115 43 0 0.0 1.0 0.00 0.00 0.00 59 1022.1
20260902142559 41 0 0.0 3.0 0.00 0.00 0.00 60 1022.0
20260902142059 41 0 0.0 3.0 0.00 0.00 0.00 59 1022.0
20260902141605 41 0 0.0 0.0 0.00 0.00 0.00 58 1021.9
20260902141058 41 0 0.0 1.0 0.00 0.00 0.00 58 1021.8
20260902140601 41 0 0.0 1.0 0.00 0.00 0.00 57 1021.7
20260902140105 41 171 0.0 1.0 0.00 0.00 0.00 57 1021.8
20260902135558 41 0 0.0 2.0 0.00 0.00 0.00 57 1021.8
20260902135058 40 0 0.0 2.0 0.00 0.00 0.00 56 1022.0
20260902134605 40 185 0.0 2.0 0.00 0.00 0.00 55 1022.0
20260902134058 40 0 0.0 1.0 0.00 0.00 0.00 55 1021.7
20260902133558 40 165 0.0 2.0 0.00 0.00 0.00 54 1022.0
20260902133103 40 0 0.0 2.0 0.00 0.00 0.00 54 1021.7
20260902132558 40 0 0.0 2.0 0.00 0.00 0.00 53 1021.6
20260902132058 40 0 0.0 2.0 0.00 0.00 0.00 54 1021.4
20260902131607 40 162 0.0 2.0 0.00 0.00 0.00 52 1021.5
20260902131151 41 0 1.0 2.0 0.00 0.00 0.00 52 1021.4
20260902130559 41 0 0.0 2.0 0.00 0.00 0.00 49 1021.1
20260902130104 43 255 0.0 2.0 0.00 0.00 0.00 48 1021.3
20260902125558 43 58 0.0 3.0 0.00 0.00 0.00 51 1021.1
20260902125058 42 115 0.0 3.0 0.00 0.00 0.00 48 1021.1
20260902124610 42 233 0.0 2.0 0.00 0.00 0.00 49 1021.3
20260902124100 42 0 0.0 2.0 0.00 0.00 0.00 49 1021.2
20260902123559 43 188 0.0 2.0 0.00 0.00 0.00 49 1021.3
20260902123104 42 54 0.0 2.0 0.00 0.00 0.00 51 1021.3
20260902122600 42 163 0.0 1.0 0.00 0.00 0.00 50 1021.2
20260902122058 42 140 0.0 1.0 0.00 0.00 0.00 49 1021.2
20260902121613 41 165 0.0 3.0 0.00 0.00 0.00 49 1021.3
20260902121058 40 0 1.0 3.0 0.00 0.00 0.00 48 1021.3
20260902120558 41 174 0.0 3.0 0.00 0.00 0.00 48 1021.3
20260902120111 41 0 0.0 4.0 0.00 0.00 0.00 47 1021.2
20260902115558 41 148 1.0 4.0 0.00 0.00 0.00 48 1021.0
20260902115058 41 162 0.0 2.0 0.00 0.00 0.00 47 1021.0
20260902114619 42 236 1.0 2.0 0.00 0.00 0.00 46 1020.9
20260902114058 42 162 0.0 2.0 0.00 0.00 0.00 45 1020.8
20260902113557 42 158 0.0 2.0 0.00 0.00 0.00 46 1020.6
20260902113104 41 0 1.0 4.0 0.00 0.00 0.00 47 1020.6
20260902112559 40 0 1.0 4.0 0.00 0.00 0.00 47 1020.5
20260902112100 41 0 0.0 1.0 0.00 0.00 0.00 46 1020.7
20260902111605 40 154 0.0 1.0 0.00 0.00 0.00 46 1020.5
20260902111058 41 0 0.0 1.0 0.00 0.00 0.00 46 1020.5
20260902110600 41 0 0.0 3.0 0.00 0.00 0.00 45 1020.5
20260902110110 41 0 1.0 3.0 0.00 0.00 0.00 45 1020.5
20260902105602 41 155 0.0 2.0 0.00 0.00 0.00 44 1020.5
20260902105058 41 255 0.0 2.0 0.00 0.00 0.00 45 1020.6
20260902104605 41 191 0.0 2.0 0.00 0.00 0.00 44 1020.6
20260902104058 41 206 0.0 2.0 0.00 0.00 0.00 44 1020.3
20260902103601 42 175 0.0 1.0 0.00 0.00 0.00 43 1020.4
20260902103120 43 0 0.0 1.0 0.00 0.00 0.00 42 1020.3
20260902102559 43 0 0.0 2.0 0.00 0.00 0.00 42 1020.2
20260902102059 43 0 0.0 3.0 0.00 0.00 0.00 41 1020.2
20260902101601 45 227 0.0 3.0 0.00 0.00 0.00 41 1020.2
20260902101058 44 98 1.0 3.0 0.00 0.00 0.00 41 1020.1
20260902100558 43 0 0.0 2.0 0.00 0.00 0.00 41 1020.2
20260902100101 43 0 0.0 2.0 0.00 0.00 0.00 42 1020.4
20260902095601 43 182 0.0 1.0 0.00 0.00 0.00 42 1020.2
20260902095058 45 0 0.0 5.0 0.00 0.00 0.00 40 1020.4
20260902094603 45 0 1.0 5.0 0.00 0.00 0.00 40 1020.4
20260902094059 44 118 3.0 5.0 0.00 0.00 0.00 42 1020.3
20260902093557 45 128 0.0 3.0 0.00 0.00 0.00 42 1020.5
20260902093111 46 249 0.0 3.0 0.00 0.00 0.00 39 1020.6
20260902092558 44 63 1.0 2.0 0.00 0.00 0.00 41 1020.5
20260902092101 44 147 0.0 2.0 0.00 0.00 0.00 43 1020.6
20260902091607 45 246 0.0 3.0 0.00 0.00 0.00 42 1020.6
20260902091100 45 133 0.0 3.0 0.00 0.00 0.00 42 1020.5
20260902090558 44 153 0.0 3.0 0.00 0.00 0.00 44 1020.7
20260902090105 44 0 0.0 3.0 0.00 0.00 0.00 43 1020.8
20260902085558 45 0 1.0 3.0 0.00 0.00 0.00 44 1020.7
20260902085059 43 118 1.0 3.0 0.00 0.00 0.00 45 1020.6
20260902084605 44 0 0.0 1.0 0.00 0.00 0.00 46 1020.6
20260902084059 44 0 0.0 2.0 0.00 0.00 0.00 45 1020.5
20260902083558 44 0 0.0 2.0 0.00 0.00 0.00 45 1020.7
20260902083104 44 0 0.0 2.0 0.00 0.00 0.00 45 1020.8
20260902082558 44 0 0.0 2.0 0.00 0.00 0.00 44 1020.9
20260902082058 45 217 0.0 2.0 0.00 0.00 0.00 44 1020.8
20260902081609 45 0 0.0 2.0 0.00 0.00 0.00 44 1020.9
20260902081058 45 0 0.0 2.0 0.00 0.00 0.00 45 1020.7
20260902080559 46 255 0.0 1.0 0.00 0.00 0.00 42 1020.7
20260902080105 46 207 0.0 2.0 0.00 0.00 0.00 42 1020.6
20260902075557 47 0 0.0 2.0 0.00 0.00 0.00 40 1020.8
20260902075058 48 248 0.0 4.0 0.00 0.00 0.00 40 1020.9
20260902074614 48 77 2.0 6.0 0.00 0.00 0.00 39 1020.6
20260902074058 48 93 3.0 6.0 0.00 0.00 0.00 40 1020.8
20260902073602 48 119 0.0 4.0 0.00 0.00 0.00 41 1020.7
20260902073109 48 0 1.0 5.0 0.00 0.00 0.00 40 1020.8
20260902072557 47 95 1.0 5.0 0.00 0.00 0.00 42 1020.6
20260902072058 47 143 0.0 4.0 0.00 0.00 0.00 43 1020.8
20260902071604 47 110 1.0 4.0 0.00 0.00 0.00 44 1020.6
20260902071058 47 161 2.0 5.0 0.00 0.00 0.00 44 1020.8
20260902070557 48 0 0.0 6.0 0.00 0.00 0.00 44 1020.6
20260902070107 48 55 3.0 6.0 0.00 0.00 0.00 45 1020.8
20260902065558 46 82 0.0 3.0 0.00 0.00 0.00 46 1020.6
20260902065100 47 0 0.0 5.0 0.00 0.00 0.00 46 1020.6
20260902064603 48 0 3.0 6.0 0.00 0.00 0.00 45 1020.6
20260902064059 49 0 0.0 8.0 0.00 0.00 0.00 44 1020.6
20260902063558 49 77 4.0 8.0 0.00 0.00 0.00 45 1020.4
20260902063104 48 63 3.0 6.0 0.00 0.00 0.00 45 1020.4
20260902062558 47 136 1.0 4.0 0.00 0.00 0.00 47 1020.6
20260902062058 47 0 1.0 3.0 0.00 0.00 0.00 48 1020.4
20260902061604 48 0 0.0 2.0 0.00 0.00 0.00 46 1020.6
20260902061059 48 0 0.0 2.0 0.00 0.00 0.00 45 1020.5
20260902060600 48 49 0.0 3.0 0.00 0.00 0.00 46 1020.1
20260902060116 48 0 0.0 3.0 0.00 0.00 0.00 47 1020.3
20260902055558 48 0 0.0 3.0 0.00 0.00 0.00 47 1020.2